Regional Weather Roundup
Issued by NWS

Home | Current Version | Previous Version | Graphics & Text | Print | Product List | Glossary On
Versions: 1 2 3 4 5 6 7 8 9 10 11 12 13 14 15 16 17 18 19 20 21 22 23 24 25 26 27 28 29 30 31 32 33 34 35 36 37 38 39 40 41 42 43 44 45 46 47 48 49 50
000
ASUS45 KTFX 230119
RWRMT
MONTANA HOURLY WEATHER ROUNDUP
NATIONAL WEATHER SERVICE GREAT FALLS MT
719 PM MDT MON SEP 22 2014

NOTE: "FAIR" INDICATES FEW OR NO CLOUDS BELOW 12000 FEET WITH NO
SIGNIFICANT WEATHER AND/OR OBSTRUCTIONS TO VISIBILITY.

* THESE STATIONS ARE NOT UNDER NWS QUALITY CONTROL. THEY DO NOT
   REPORT WEATHER SUCH AS PRECIPITATION OR FOG.

MTZ001>007-043-230200-
WEST OF THE DIVIDE
CITY           SKY/WX    TMP DP  RH WIND       PRES   REMARKS
KALISPELL      MOCLDY    73  45  37 SW3       29.89F
MISSOULA       PTCLDY    81  39  22 N6        29.92S
BUTTE          CLOUDY    64  48  56 N5        30.09R
MULLAN PASS    CLOUDY    63  43  48 VRB6      30.12F
* ESSEX        N/A       66  48  52 SE2        N/A
* LINCOLN      N/A       78  46  32 W2         N/A
* POLSON       N/A       76  45  33 N/A        N/A
* RONAN APT    PTCLDY    82  46  28 N/A        N/A
* SEELEY LAKE  N/A       79  38  23 W4G15      N/A
* THOMP F APT  CLOUDY    57  52  83 SE6G11     N/A
$$

MTZ008-052>055-230200-
SOUTHWEST MONTANA
CITY           SKY/WX    TMP DP  RH WIND       PRES   REMARKS
BOZEMAN        CLOUDY    66  52  61 CALM      30.03S
DILLON         CLOUDY    63  54  73 N3        30.08R
W YELLOWSTONE  CLOUDY    54  48  80 SW10G20   30.19R
* THREE FORKS  MOCLDY    66  66 100 N/A        N/A
* BOULDER HILL N/A       64  45  50 S10        N/A
* MONIDA PASS  N/A       54  52  93 SE4        N/A
* RAYNOLDS PAS N/A       56  38  51 SE9        N/A
* WHITEHALL    N/A       67  49  53 SW7G14     N/A
* WISE RIVER   N/A       63  49  60 SE5G11     N/A
$$

MTZ009>010-012-014-046-048-049-054-230200-
EAST SLOPES AND CENTRAL MONTANA
CITY           SKY/WX    TMP DP  RH WIND       PRES   REMARKS
CUT BANK       PTCLDY    73  43  34 W7        29.89R
GREAT FALLS    MOCLDY    73  48  41 SW10      29.88S
HELENA         MOCLDY    72  52  49 E9        29.94S
MALMSTROM AFB  MOCLDY    75  50  42 SW12      29.89S
* CONRAD       MOCLDY    72  48  43 N/A        N/A
* EAST GLACIER N/A       71  41  34 NW9G14     N/A
* MONARCH      N/A       68  43  40 S5         N/A
* PENDROY      N/A       74  45  36 NW6        N/A
* ROGERS PASS  N/A       69  43  39 NW1        N/A
* SAINT MARY   N/A       73  40  30 SW5G17     N/A
* SWEET GRASS  N/A       79  40  25 N4         N/A
* WHITE SULPH  N/A       65  48  54 S10G16     N/A
$$

MTZ011-013-016-021-035-040-045-047-050-051-230200-
NORTH CENTRAL MONTANA
CITY           SKY/WX    TMP DP  RH WIND       PRES   REMARKS
HAVRE          PTCLDY    73  54  51 E7        29.81S
LEWISTOWN      CLOUDY    70  55  59 E5        29.93S
* CHINOOK      PTCLDY    72  52  49 CALM      29.82S
* FORT BENTON  CLOUDY    81  39  22 CALM      29.84S
* CHESTER      N/A       83  40  22 SW2        N/A
* DENTON       N/A       76  46  35 SE4        N/A
* GEYSER       N/A       67  53  61 SW8        N/A
* JUDITH GAP   N/A       67  52  59 W8         N/A
* LOMA         N/A       80  46  30 NW4        N/A
$$

MTZ017>020-022>027-061-062-230200-
NORTHEAST MONTANA
CITY           SKY/WX    TMP DP  RH WIND       PRES   REMARKS
GLASGOW        CLEAR     75  48  39 CALM      29.82F
GLENDIVE       MOCLDY    66  52  61 NE9       29.87S
JORDAN         PTCLDY    70  52  53 CALM      29.84F
SIDNEY         PTCLDY   N/A N/A N/A S5        29.87R
WOLF POINT     CLEAR     75  50  42 E3        29.82F
* BEAVER HILL  N/A       67  53  61 E6G11      N/A
* CIRCLE       N/A       76  54  47 SW1        N/A
* LINDSAY DVD  N/A       69  49  49 E7         N/A
* NAVAJO       N/A       72  44  37 SE5        N/A
$$

MTZ028>042-056>058-230200-
SOUTHCENTRAL AND SOUTHEAST MONTANA
CITY           SKY/WX    TMP DP  RH WIND       PRES   REMARKS
BAKER          MOCLDY    66  52  61 E7        29.89F
BILLINGS       MOCLDY    79  45  30 NW10      29.90S
LIVINGSTON     MOCLDY    66  48  52 W10       30.01S
MILES CITY     MOCLDY    73  48  41 NW6       29.84S
* LAUREL APT   PTCLDY    75  46  36 W5         N/A
* ROUNDUP APT  CLOUDY    73  48  41 N/A        N/A
* ALZADA       N/A       72  50  46 NE5        N/A
* HYSHAM       N/A       73  49  43 SW2        N/A
* LAME DEER    N/A       71  48  44 W4G10      N/A
* REED POINT   N/A       72  45  38 W12        N/A
* ROSCOE HILL  N/A       67  40  37 NE6        N/A
$$

REGIONAL REPORTS...DAKOTAS
CITY           SKY/WX    TMP DP  RH WIND       PRES   REMARKS
WILLISTON      CLEAR     75  48  39 SE6       29.86F
DICKINSON      MOCLDY    64  52  65 SE10      29.90S
BEACH          N/A       66  50  56 SE8       29.89F
CROSBY         CLEAR     63  50  63 SE6       29.89S
TIOGA          CLEAR     68  48  49 SE10      29.93S
WATFORD CITY   CLEAR     72  48  43 SE10      29.87R
BISMARCK       PTCLDY    66  48  52 E10       29.95S
GRAND FORKS    CLEAR     64  48  56 SE7       30.01S
FARGO          CLEAR     70  46  42 S7        30.04S
BUFFALO SD     MOCLDY    70  50  49 E9        29.84S
RAPID CITY     LGT RAIN  70  52  53 SW13      29.92R
$$

REGIONAL REPORTS...WYOMING/IDAHO/WASHINGTON
CITY           SKY/WX    TMP DP  RH WIND       PRES   REMARKS
GILLETTE       CLOUDY    66  50  56 W7        29.94R
SHERIDAN       CLOUDY    66  48  52 CALM      29.94S
CODY           PTCLDY    68  43  40 W17G26    30.03R
YELLOWSTONE LA MOCLDY    50  46  86 CALM      30.27R
SALMON         MOCLDY    73  50  44 E7        30.00R
MULLAN PASS    CLOUDY    63  43  48 VRB6      30.12S
SAND POINT     PTCLDY    70  54  57 CALM      29.89F
SPOKANE        CLOUDY    79  46  31 SW12      29.91S
$$

REGIONAL REPORTS...ALBERTA
CITY           SKY/WX    TMP DP  RH WIND       PRES   REMARKS
CALGARY        MOCLDY    73  39  29 S8        29.83S
LETHBRIDGE     PTCLDY    73  43  34 S7        29.83S
MEDICINE HAT   MOCLDY    72  50  46 SW6       29.77S
EDMONTON       MOCLDY    73  45  37 CALM      29.73S
WATERTON GATE  N/A       75  39  27 W12G18     N/A
CARDSTON       N/A       72  48  43 W5         N/A
MILK RIVER     N/A       68  52  57 NE7        N/A
$$

REGIONAL REPORTS...SASKATCHEWAN
CITY           SKY/WX    TMP DP  RH WIND       PRES   REMARKS
SWIFT CURRENT  CLEAR     66  48  52 S12       29.80S
REGINA         FAIR      68  50  53 SE10      29.85S
VAL MARIE      N/A       66  52  61 SE8        N/A
ASSINIBOIA     N/A       72  43  35 S7         N/A
CORONACH       N/A       70  45  41 SE7        N/A

$$



USA.gov is the U.S. government's official web portal to all federal, state and local government web resources and services.